QPF
0.00 0.00 0.01 0.01 0.01 0.01 0.01 0.01 0.01 0.02 0.05 0.08 0.14 0.11 0.15 0.16 0.37 0.38 0.18 0.13 0.12 0.13 0.11 0.07 0.04 0.03 0.03 0.02 0.02 0.01 0.01 0.01 0.01 0.01 0.01 0.01 0.00 0.00 0.00 0.01 0.01 0.00 0.00
0.00 0.00 0.00 0.00 0.00 0.00 0.01 0.00 0.00 0.01 0.02 0.02 0.04 0.08 0.10 0.13 0.21 0.25 0.15 0.13 0.11 0.10 0.12 0.09 0.07 0.06 0.05 0.04 0.02 0.01 0.02 0.02 0.01 0.01 0.01 0.00 0.00 0.00 0.00 0.00 0.00 0.00 0.00
0.00 0.00 0.00 0.00 0.00 0.00 0.00 0.00 0.00 0.01 0.01 0.01 0.02 0.05 0.07 0.10 0.12 0.12 0.12 0.10 0.08 0.08 0.10 0.09 0.08 0.08 0.07 0.06 0.05 0.03 0.03 0.03 0.02 0.01 0.01 0.00 0.00 0.00 0.00 0.00 0.00 0.00 0.00
0.00 0.00 0.00 0.00 0.00 0.00 0.00 0.00 0.01 0.00 0.00 0.01 0.01 0.03 0.06 0.07 0.08 0.09 0.07 0.08 0.08 0.05 0.06 0.07 0.07 0.06 0.07 0.06 0.07 0.07 0.05 0.04 0.03 0.03 0.02 0.01 0.00 0.00 0.00 0.00 0.00 0.00 0.00
0.00 0.00 0.00 0.00 0.00 0.00 0.00 0.00 0.00 0.00 0.00 0.00 0.01 0.02 0.03 0.02 0.03 0.03 0.03 0.05 0.08 0.07 0.04 0.04 0.04 0.05 0.06 0.07 0.09 0.09 0.07 0.05 0.04 0.04 0.04 0.03 0.02 0.01 0.01 0.00 0.00 0.00 0.00
0.00 0.00 0.00 0.00 0.00 0.00 0.00 0.00 0.00 0.00 0.00 0.00 0.00 0.01 0.01 0.01 0.01 0.02 0.03 0.03 0.07 0.09 0.05 0.03 0.02 0.02 0.03 0.06 0.07 0.08 0.08 0.07 0.06 0.05 0.05 0.05 0.04 0.02 0.01 0.01 0.01 0.00 0.00
0.00 0.00 0.00 0.00 0.00 0.00 0.00 0.00 0.00 0.00 0.00 0.00 0.00 0.00 0.01 0.01 0.01 0.01 0.02 0.02 0.03 0.06 0.05 0.02 0.02 0.01 0.01 0.02 0.03 0.06 0.07 0.08 0.08 0.07 0.06 0.05 0.05 0.03 0.02 0.01 0.01 0.01 0.01
0.00 0.00 0.00 0.00 0.00 0.00 0.00 0.00 0.00 0.00 0.00 0.00 0.00 0.00 0.00 0.01 0.01 0.01 0.01 0.02 0.02 0.02 0.02 0.01 0.02 0.01 0.01 0.01 0.01 0.03 0.05 0.07 0.08 0.08 0.07 0.06 0.05 0.04 0.02 0.02 0.01 0.01 0.01
0.00 0.00 0.00 0.00 0.00 0.00 0.00 0.00 0.00 0.00 0.00 0.00 0.00 0.00 0.00 0.01 0.01 0.01 0.01 0.01 0.01 0.00 0.00 0.01 0.01 0.01 0.01 0.01 0.01 0.02 0.03 0.03 0.05 0.07 0.07 0.06 0.04 0.03 0.03 0.03 0.02 0.01 0.01
0.00 0.00 0.00 0.00 0.00 0.00 0.00 0.00 0.00 0.00 0.00 0.00 0.00 0.00 0.00 0.00 0.00 0.00 0.00 0.00 0.00 0.00 0.00 0.00 0.01 0.01 0.01 0.01 0.01 0.01 0.01 0.02 0.04 0.06 0.08 0.08 0.05 0.04 0.03 0.04 0.04 0.03 0.02
0.00 0.00 0.00 0.00 0.00 0.00 0.00 0.00 0.00 0.00 0.00 0.00 0.00 0.00 0.00 0.00 0.00 0.00 0.00 0.00 0.00 0.00 0.00 0.00 0.00 0.00 0.01 0.01 0.01 0.00 0.01 0.01 0.01 0.03 0.04 0.05 0.06 0.05 0.04 0.05 0.06 0.06 0.06
0.00 0.00 0.00 0.00 0.00 0.00 0.00 0.00 0.00 0.00 0.00 0.00 0.00 0.00 0.00 0.00 0.00 0.00 0.00 0.00 0.00 0.00 0.00 0.00 0.00 0.00 0.00 0.00 0.00 0.00 0.00 0.00 0.00 0.01 0.01 0.02 0.02 0.03 0.05 0.06 0.06 0.07 0.08
0.00 0.00 0.00 0.00 0.00 0.00 0.00 0.00 0.00 0.00 0.00 0.00 0.00 0.00 0.00 0.00 0.00 0.00 0.00 0.00 0.00 0.00 0.00 0.00 0.00 0.00 0.00 0.00 0.00 0.00 0.00 0.00 0.00 0.00 0.00 0.01 0.01 0.01 0.02 0.02 0.04 0.05 0.07
0.00 0.00 0.00 0.00 0.00 0.00 0.00 0.00 0.00 0.00 0.00 0.00 0.00 0.00 0.00 0.00 0.00 0.00 0.00 0.00 0.00 0.00 0.00 0.00 0.00 0.00 0.00 0.00 0.00 0.00 0.00 0.00 0.00 0.00 0.00 0.00 0.00 0.00 0.00 0.01 0.01 0.02 0.02
0.00 0.00 0.00 0.00 0.00 0.00 0.00 0.00 0.00 0.00 0.00 0.00 0.00 0.00 0.00 0.00 0.00 0.00 0.00 0.00 0.00 0.00 0.00 0.00 0.00 0.00 0.00 0.00 0.00 0.00 0.00 0.00 0.00 0.00 0.00 0.00 0.00 0.00 0.00 0.00 0.00 0.00 0.01
0.00 0.01 0.00 0.00 0.00 0.00 0.00 0.00 0.00 0.00 0.00 0.00 0.00 0.00 0.00 0.00 0.00 0.00 0.00 0.00 0.00 0.00 0.00 0.00 0.00 0.00 0.00 0.00 0.00 0.00 0.00 0.00 0.00 0.00 0.00 0.00 0.00 0.00 0.00 0.00 0.00 0.00 0.00
0.01 0.01 0.01 0.01 0.00 0.00 0.00 0.00 0.00 0.00 0.00 0.00 0.00 0.00 0.00 0.00 0.00 0.00 0.00 0.00 0.00 0.00 0.00 0.00 0.00 0.00 0.00 0.00 0.00 0.00 0.00 0.00 0.00 0.00 0.00 0.00 0.00 0.00 0.00 0.00 0.00 0.00 0.00
0.03 0.03 0.03 0.04 0.02 0.01 0.01 0.01 0.01 0.00 0.00 0.00 0.00 0.00 0.00 0.00 0.00 0.00 0.00 0.00 0.00 0.00 0.00 0.00 0.00 0.00 0.00 0.00 0.00 0.00 0.00 0.00 0.00 0.00 0.00 0.00 0.00 0.00 0.00 0.00 0.00 0.00 0.00
0.08 0.07 0.07 0.07 0.06 0.05 0.04 0.03 0.03 0.02 0.01 0.00 0.00 0.00 0.00 0.00 0.00 0.00 0.00 0.00 0.00 0.00 0.00 0.00 0.00 0.00 0.00 0.00 0.00 0.00 0.00 0.00 0.00 0.00 0.00 0.00 0.00 0.00 0.00 0.00 0.00 0.00 0.00
0.14 0.13 0.14 0.15 0.12 0.10 0.10 0.07 0.05 0.04 0.02 0.02 0.02 0.01 0.01 0.01 0.00 0.00 0.00 0.00 0.01 0.01 0.01 0.01 0.00 0.00 0.00 0.00 0.00 0.00 0.00 0.00 0.00 0.00 0.00 0.00 0.00 0.00 0.00 0.00 0.00 0.00 0.00
0.25 0.27 0.25 0.22 0.20 0.19 0.17 0.16 0.13 0.11 0.08 0.06 0.06 0.05 0.03 0.03 0.03 0.03 0.03 0.03 0.03 0.03 0.02 0.01 0.00 0.00 0.00 0.00 0.00 0.00 0.00 0.00 0.00 0.00 0.00 0.00 0.00 0.00 0.00 0.00 0.00 0.00 0.00
0.39 0.36 0.34 0.32 0.31 0.26 0.23 0.22 0.20 0.17 0.14 0.12 0.10 0.09 0.09 0.09 0.07 0.07 0.06 0.07 0.07 0.06 0.04 0.03 0.02 0.01 0.00 0.00 0.00 0.00 0.00 0.00 0.00 0.00 0.00 0.00 0.00 0.00 0.00 0.00 0.00 0.00 0.00
0.43 0.40 0.41 0.40 0.39 0.35 0.28 0.24 0.21 0.18 0.15 0.13 0.12 0.10 0.09 0.08 0.08 0.08 0.08 0.08 0.06 0.06 0.05 0.04 0.03 0.01 0.01 0.01 0.01 0.01 0.01 0.01 0.00 0.00 0.00 0.00 0.00 0.00 0.00 0.00 0.00 0.00 0.00
0.36 0.36 0.35 0.28 0.24 0.22 0.21 0.19 0.17 0.16 0.15 0.14 0.13 0.12 0.10 0.07 0.07 0.07 0.06 0.05 0.03 0.03 0.04 0.04 0.02 0.01 0.01 0.01 0.02 0.02 0.02 0.01 0.01 0.00 0.00 0.00 0.00 0.00 0.00 0.00 0.00 0.00 0.00
0.22 0.21 0.21 0.19 0.16 0.15 0.17 0.16 0.15 0.14 0.13 0.12 0.12 0.11 0.09 0.06 0.04 0.03 0.03 0.02 0.01 0.01 0.02 0.03 0.02 0.02 0.02 0.03 0.04 0.04 0.03 0.02 0.01 0.00 0.00 0.00 0.00 0.00 0.00 0.00 0.00 0.00 0.00
0.10 0.10 0.11 0.10 0.10 0.12 0.13 0.12 0.13 0.12 0.09 0.08 0.08 0.08 0.08 0.06 0.05 0.04 0.02 0.02 0.01 0.01 0.02 0.02 0.02 0.02 0.02 0.02 0.04 0.05 0.04 0.04 0.02 0.01 0.01 0.01 0.00 0.00 0.00 0.00 0.00 0.00 0.00
MSLP
1016.37 1016.33 1016.25 1016.16 1016.11 1016.14 1016.27 1016.49 1016.78 1017.10 1017.43 1017.72 1017.95 1018.13 1018.25 1018.35 1018.43 1018.54 1018.67 1018.84 1019.02 1019.22 1019.41 1019.58 1019.73 1019.86 1019.97 1020.07 1020.17 1020.29 1020.43 1020.59 1020.78 1020.99 1021.21 1021.43 1021.65 1021.85 1022.02 1022.16 1022.26 1022.33 1022.38
1016.37 1016.34 1016.28 1016.22 1016.19 1016.24 1016.37 1016.58 1016.85 1017.17 1017.48 1017.77 1018.01 1018.19 1018.32 1018.40 1018.46 1018.53 1018.61 1018.72 1018.86 1019.03 1019.22 1019.41 1019.59 1019.75 1019.90 1020.04 1020.16 1020.29 1020.43 1020.59 1020.77 1020.98 1021.21 1021.46 1021.70 1021.93 1022.12 1022.28 1022.39 1022.46 1022.50
1016.36 1016.34 1016.32 1016.31 1016.33 1016.41 1016.56 1016.77 1017.03 1017.33 1017.63 1017.91 1018.14 1018.31 1018.43 1018.50 1018.53 1018.55 1018.57 1018.62 1018.70 1018.82 1018.98 1019.17 1019.37 1019.57 1019.76 1019.93 1020.09 1020.24 1020.38 1020.54 1020.71 1020.92 1021.15 1021.40 1021.66 1021.91 1022.12 1022.30 1022.42 1022.50 1022.55
1016.34 1016.35 1016.38 1016.43 1016.52 1016.65 1016.82 1017.04 1017.29 1017.56 1017.84 1018.09 1018.31 1018.48 1018.59 1018.64 1018.64 1018.61 1018.57 1018.55 1018.56 1018.62 1018.73 1018.89 1019.09 1019.31 1019.53 1019.75 1019.94 1020.11 1020.27 1020.42 1020.60 1020.79 1021.02 1021.27 1021.53 1021.78 1022.01 1022.21 1022.35 1022.45 1022.52
1016.34 1016.38 1016.46 1016.58 1016.74 1016.92 1017.12 1017.34 1017.58 1017.82 1018.07 1018.30 1018.50 1018.66 1018.77 1018.81 1018.79 1018.72 1018.63 1018.53 1018.46 1018.44 1018.49 1018.61 1018.78 1019.00 1019.24 1019.48 1019.70 1019.90 1020.08 1020.24 1020.41 1020.60 1020.81 1021.05 1021.30 1021.56 1021.80 1022.01 1022.18 1022.31 1022.42
1016.38 1016.44 1016.57 1016.76 1016.97 1017.19 1017.42 1017.64 1017.86 1018.07 1018.28 1018.49 1018.68 1018.84 1018.95 1019.00 1018.97 1018.88 1018.74 1018.58 1018.43 1018.33 1018.30 1018.35 1018.49 1018.69 1018.92 1019.17 1019.41 1019.63 1019.82 1020.00 1020.17 1020.35 1020.55 1020.77 1021.01 1021.26 1021.50 1021.73 1021.92 1022.09 1022.23
1016.47 1016.55 1016.72 1016.94 1017.20 1017.46 1017.70 1017.91 1018.10 1018.28 1018.46 1018.64 1018.82 1018.99 1019.12 1019.19 1019.18 1019.08 1018.92 1018.71 1018.50 1018.32 1018.20 1018.18 1018.24 1018.40 1018.61 1018.85 1019.10 1019.33 1019.53 1019.72 1019.89 1020.06 1020.25 1020.46 1020.69 1020.93 1021.16 1021.39 1021.60 1021.79 1021.97
1016.61 1016.70 1016.89 1017.14 1017.43 1017.70 1017.94 1018.13 1018.29 1018.43 1018.57 1018.74 1018.92 1019.11 1019.27 1019.38 1019.41 1019.33 1019.17 1018.93 1018.67 1018.41 1018.22 1018.10 1018.09 1018.18 1018.35 1018.56 1018.80 1019.03 1019.24 1019.43 1019.61 1019.78 1019.96 1020.16 1020.37 1020.59 1020.81 1021.03 1021.23 1021.43 1021.62
1016.77 1016.87 1017.07 1017.35 1017.64 1017.91 1018.13 1018.30 1018.42 1018.53 1018.64 1018.80 1018.98 1019.20 1019.40 1019.56 1019.64 1019.61 1019.47 1019.23 1018.93 1018.63 1018.36 1018.16 1018.07 1018.08 1018.18 1018.35 1018.55 1018.77 1018.98 1019.17 1019.35 1019.53 1019.70 1019.88 1020.07 1020.27 1020.46 1020.66 1020.84 1021.03 1021.21
1016.93 1017.04 1017.25 1017.53 1017.82 1018.08 1018.28 1018.42 1018.51 1018.58 1018.68 1018.82 1019.02 1019.26 1019.52 1019.74 1019.87 1019.90 1019.79 1019.57 1019.27 1018.93 1018.61 1018.34 1018.17 1018.10 1018.13 1018.23 1018.39 1018.58 1018.77 1018.96 1019.14 1019.31 1019.47 1019.64 1019.81 1019.98 1020.14 1020.29 1020.44 1020.58 1020.74
1017.04 1017.16 1017.38 1017.65 1017.94 1018.19 1018.37 1018.49 1018.55 1018.60 1018.68 1018.82 1019.03 1019.30 1019.60 1019.87 1020.07 1020.15 1020.10 1019.92 1019.63 1019.28 1018.92 1018.60 1018.36 1018.22 1018.18 1018.21 1018.31 1018.45 1018.62 1018.78 1018.95 1019.11 1019.26 1019.42 1019.56 1019.70 1019.82 1019.92 1020.02 1020.11 1020.21
1017.05 1017.19 1017.42 1017.70 1017.98 1018.22 1018.40 1018.50 1018.55 1018.59 1018.66 1018.80 1019.02 1019.31 1019.63 1019.95 1020.20 1020.34 1020.34 1020.20 1019.94 1019.61 1019.25 1018.90 1018.62 1018.41 1018.30 1018.26 1018.30 1018.38 1018.49 1018.62 1018.76 1018.90 1019.04 1019.18 1019.30 1019.41 1019.49 1019.55 1019.59 1019.63 1019.67
1016.94 1017.10 1017.34 1017.63 1017.92 1018.16 1018.33 1018.44 1018.49 1018.53 1018.60 1018.74 1018.96 1019.26 1019.60 1019.94 1020.23 1020.41 1020.46 1020.37 1020.16 1019.86 1019.52 1019.17 1018.86 1018.62 1018.44 1018.34 1018.31 1018.32 1018.38 1018.46 1018.56 1018.67 1018.79 1018.91 1019.01 1019.09 1019.15 1019.17 1019.16 1019.15 1019.13
1016.70 1016.89 1017.15 1017.45 1017.74 1017.99 1018.18 1018.29 1018.36 1018.41 1018.49 1018.63 1018.85 1019.14 1019.48 1019.83 1020.13 1020.34 1020.43 1020.39 1020.23 1019.98 1019.68 1019.35 1019.05 1018.78 1018.57 1018.42 1018.31 1018.26 1018.24 1018.26 1018.31 1018.39 1018.48 1018.58 1018.67 1018.73 1018.77 1018.77 1018.74 1018.69 1018.63
1016.37 1016.57 1016.84 1017.14 1017.45 1017.71 1017.92 1018.06 1018.15 1018.22 1018.32 1018.46 1018.67 1018.95 1019.27 1019.60 1019.89 1020.11 1020.23 1020.23 1020.13 1019.94 1019.69 1019.41 1019.13 1018.87 1018.64 1018.44 1018.28 1018.16 1018.08 1018.03 1018.03 1018.06 1018.11 1018.19 1018.27 1018.33 1018.36 1018.36 1018.32 1018.26 1018.18
1015.99 1016.19 1016.45 1016.76 1017.07 1017.34 1017.57 1017.74 1017.86 1017.96 1018.07 1018.22 1018.42 1018.67 1018.96 1019.26 1019.53 1019.74 1019.87 1019.91 1019.86 1019.73 1019.54 1019.33 1019.09 1018.85 1018.62 1018.41 1018.20 1018.03 1017.88 1017.77 1017.70 1017.68 1017.70 1017.75 1017.82 1017.88 1017.92 1017.93 1017.91 1017.85 1017.78
1015.62 1015.79 1016.04 1016.32 1016.62 1016.91 1017.15 1017.34 1017.50 1017.63 1017.76 1017.92 1018.11 1018.33 1018.58 1018.83 1019.07 1019.26 1019.39 1019.44 1019.44 1019.37 1019.25 1019.10 1018.92 1018.72 1018.51 1018.29 1018.06 1017.85 1017.64 1017.47 1017.35 1017.28 1017.26 1017.28 1017.34 1017.40 1017.45 1017.48 1017.48 1017.45 1017.40
1015.30 1015.44 1015.64 1015.89 1016.17 1016.44 1016.69 1016.91 1017.09 1017.25 1017.40 1017.56 1017.74 1017.94 1018.15 1018.36 1018.55 1018.71 1018.83 1018.90 1018.93 1018.91 1018.85 1018.77 1018.65 1018.50 1018.31 1018.10 1017.87 1017.62 1017.38 1017.17 1016.99 1016.87 1016.81 1016.80 1016.83 1016.89 1016.94 1016.98 1017.00 1017.00 1016.98
1015.08 1015.15 1015.30 1015.50 1015.74 1015.99 1016.23 1016.46 1016.66 1016.84 1017.01 1017.18 1017.36 1017.53 1017.71 1017.88 1018.03 1018.16 1018.26 1018.33 1018.37 1018.39 1018.38 1018.35 1018.29 1018.18 1018.03 1017.84 1017.61 1017.36 1017.09 1016.84 1016.62 1016.45 1016.35 1016.30 1016.30 1016.33 1016.38 1016.42 1016.45 1016.47 1016.47
1014.94 1014.96 1015.04 1015.18 1015.37 1015.58 1015.81 1016.03 1016.24 1016.44 1016.63 1016.81 1016.98 1017.14 1017.29 1017.43 1017.55 1017.65 1017.73 1017.79 1017.83 1017.87 1017.89 1017.89 1017.86 1017.79 1017.68 1017.51 1017.29 1017.03 1016.76 1016.48 1016.23 1016.02 1015.87 1015.78 1015.74 1015.74 1015.75 1015.78 1015.80 1015.82 1015.83
1014.90 1014.84 1014.86 1014.94 1015.08 1015.25 1015.45 1015.66 1015.87 1016.08 1016.28 1016.46 1016.63 1016.79 1016.93 1017.05 1017.14 1017.21 1017.27 1017.31 1017.34 1017.38 1017.40 1017.41 1017.40 1017.34 1017.24 1017.09 1016.88 1016.63 1016.35 1016.07 1015.79 1015.56 1015.37 1015.23 1015.14 1015.08 1015.05 1015.04 1015.03 1015.03 1015.04
1014.91 1014.81 1014.77 1014.81 1014.90 1015.04 1015.21 1015.40 1015.60 1015.80 1016.00 1016.19 1016.36 1016.52 1016.65 1016.75 1016.82 1016.87 1016.90 1016.92 1016.93 1016.93 1016.93 1016.93 1016.90 1016.84 1016.73 1016.58 1016.38 1016.13 1015.86 1015.57 1015.29 1015.03 1014.81 1014.62 1014.48 1014.37 1014.29 1014.22 1014.16 1014.13 1014.11
1014.98 1014.85 1014.79 1014.79 1014.85 1014.96 1015.10 1015.26 1015.45 1015.64 1015.83 1016.01 1016.19 1016.34 1016.46 1016.56 1016.61 1016.64 1016.64 1016.62 1016.59 1016.55 1016.50 1016.45 1016.38 1016.28 1016.15 1015.98 1015.77 1015.52 1015.25 1014.97 1014.68 1014.42 1014.18 1013.96 1013.78 1013.62 1013.47 1013.35 1013.24 1013.15 1013.10
1015.10 1014.98 1014.92 1014.92 1014.96 1015.05 1015.16 1015.30 1015.46 1015.62 1015.80 1015.97 1016.13 1016.28 1016.39 1016.47 1016.52 1016.52 1016.48 1016.42 1016.33 1016.23 1016.11 1015.98 1015.84 1015.68 1015.50 1015.29 1015.06 1014.80 1014.53 1014.26 1013.99 1013.73 1013.48 1013.25 1013.04 1012.83 1012.64 1012.47 1012.30 1012.17 1012.08
1015.30 1015.22 1015.19 1015.20 1015.24 1015.32 1015.41 1015.52 1015.64 1015.78 1015.92 1016.07 1016.20 1016.33 1016.43 1016.49 1016.51 1016.48 1016.41 1016.29 1016.13 1015.95 1015.75 1015.53 1015.30 1015.06 1014.80 1014.54 1014.28 1014.01 1013.73 1013.47 1013.21 1012.96 1012.73 1012.50 1012.27 1012.05 1011.83 1011.62 1011.42 1011.24 1011.11
1015.61 1015.59 1015.60 1015.64 1015.70 1015.77 1015.84 1015.92 1016.00 1016.09 1016.19 1016.29 1016.39 1016.48 1016.55 1016.58 1016.57 1016.50 1016.37 1016.19 1015.97 1015.70 1015.40 1015.09 1014.76 1014.43 1014.10 1013.78 1013.46 1013.17 1012.89 1012.62 1012.38 1012.15 1011.94 1011.72 1011.51 1011.29 1011.06 1010.83 1010.60 1010.40 1010.24
Thickness
5748 5747 5745 5744 5742 5741 5739 5737 5734 5732 5730 5728 5726 5725 5725 5725 5725 5724 5724 5723 5723 5722 5721 5720 5719 5719 5718 5717 5716 5716 5715 5715 5715 5715 5714 5714 5714 5714 5714 5713 5713 5712 5711
5746 5745 5744 5742 5741 5740 5738 5736 5734 5732 5730 5728 5727 5725 5724 5725 5725 5724 5723 5723 5723 5721 5720 5719 5719 5718 5717 5716 5715 5715 5714 5713 5713 5712 5712 5712 5712 5712 5712 5712 5711 5711 5710
5745 5744 5742 5741 5740 5739 5737 5735 5734 5732 5730 5728 5727 5726 5724 5724 5724 5724 5723 5723 5722 5721 5719 5719 5718 5717 5716 5715 5714 5713 5712 5712 5711 5710 5710 5710 5710 5710 5710 5710 5710 5709 5709
5743 5743 5741 5739 5739 5738 5736 5734 5732 5730 5728 5727 5726 5726 5725 5724 5724 5724 5723 5723 5722 5721 5720 5719 5718 5717 5716 5715 5714 5712 5711 5710 5709 5708 5708 5708 5708 5708 5708 5708 5708 5708 5707
5742 5741 5739 5738 5738 5737 5735 5734 5731 5729 5727 5726 5726 5725 5725 5725 5724 5724 5724 5723 5722 5722 5721 5720 5718 5717 5716 5714 5713 5712 5711 5709 5708 5707 5706 5706 5706 5706 5706 5706 5706 5706 5706
5740 5739 5737 5736 5736 5735 5733 5732 5730 5729 5727 5726 5727 5725 5725 5725 5725 5725 5724 5724 5723 5722 5721 5720 5719 5718 5716 5715 5713 5712 5710 5709 5708 5707 5706 5705 5705 5704 5704 5704 5704 5704 5704
5738 5737 5735 5735 5734 5732 5731 5731 5730 5728 5726 5726 5723 5720 5722 5724 5724 5724 5724 5724 5723 5723 5722 5721 5720 5718 5717 5715 5714 5712 5711 5709 5708 5707 5705 5704 5704 5703 5703 5703 5702 5702 5702
5736 5735 5734 5733 5732 5731 5730 5729 5729 5726 5724 5725 5721 5715 5711 5714 5719 5723 5723 5723 5723 5723 5722 5721 5720 5718 5717 5715 5714 5712 5711 5709 5708 5707 5706 5705 5703 5703 5702 5702 5701 5701 5700
5734 5734 5733 5733 5732 5730 5728 5728 5728 5725 5722 5723 5723 5718 5710 5706 5711 5717 5721 5722 5722 5722 5721 5721 5720 5718 5716 5715 5714 5712 5711 5710 5708 5707 5706 5704 5703 5702 5702 5701 5700 5700 5699
5732 5732 5732 5732 5731 5730 5728 5728 5727 5725 5723 5720 5721 5721 5719 5716 5710 5708 5714 5718 5720 5720 5720 5720 5719 5718 5716 5715 5714 5713 5711 5710 5708 5706 5705 5704 5703 5702 5701 5701 5700 5699 5698
5731 5731 5731 5730 5729 5728 5727 5726 5725 5724 5723 5720 5719 5718 5717 5715 5714 5709 5705 5710 5713 5717 5718 5718 5718 5717 5715 5714 5713 5712 5711 5709 5707 5706 5704 5703 5703 5702 5701 5700 5699 5698 5698
5728 5728 5729 5728 5728 5727 5726 5725 5724 5723 5721 5720 5718 5717 5715 5713 5710 5708 5704 5704 5705 5710 5715 5716 5716 5715 5714 5713 5712 5711 5709 5708 5706 5705 5703 5702 5701 5701 5700 5699 5699 5698 5697
5725 5726 5727 5726 5726 5725 5725 5723 5721 5720 5720 5718 5716 5715 5714 5713 5711 5708 5704 5701 5701 5704 5708 5711 5713 5712 5711 5711 5709 5708 5707 5705 5704 5703 5702 5700 5700 5699 5698 5698 5697 5697 5696
5726 5727 5726 5725 5725 5724 5722 5721 5719 5718 5717 5716 5715 5713 5712 5711 5710 5708 5704 5699 5694 5694 5698 5703 5707 5709 5708 5708 5707 5705 5704 5702 5701 5700 5699 5698 5698 5697 5696 5696 5695 5695 5694
5726 5726 5725 5723 5722 5721 5720 5718 5716 5715 5714 5713 5711 5710 5708 5707 5706 5705 5703 5700 5693 5687 5688 5695 5699 5704 5704 5703 5702 5701 5700 5699 5698 5697 5696 5696 5695 5694 5694 5693 5693 5692 5692
5726 5725 5723 5721 5720 5718 5717 5714 5713 5712 5710 5708 5707 5705 5704 5703 5702 5700 5698 5696 5693 5688 5684 5690 5694 5698 5699 5698 5697 5696 5696 5696 5695 5694 5694 5693 5692 5691 5691 5690 5690 5690 5689
5725 5723 5721 5719 5717 5715 5713 5710 5708 5707 5704 5702 5702 5700 5699 5698 5696 5694 5693 5691 5688 5685 5681 5685 5688 5692 5692 5692 5692 5691 5691 5690 5690 5690 5690 5690 5689 5689 5688 5688 5687 5687 5686
5722 5721 5719 5716 5713 5711 5709 5707 5704 5703 5700 5697 5696 5695 5693 5693 5690 5689 5687 5685 5683 5681 5678 5677 5681 5683 5685 5686 5686 5686 5686 5686 5686 5686 5687 5686 5686 5686 5686 5685 5684 5684 5683
5718 5716 5714 5711 5709 5707 5704 5703 5700 5698 5696 5694 5692 5690 5688 5686 5684 5683 5681 5679 5678 5678 5675 5673 5674 5676 5677 5678 5678 5679 5681 5681 5682 5682 5682 5682 5683 5683 5683 5682 5681 5681 5680
5712 5710 5708 5706 5703 5701 5699 5697 5695 5693 5690 5689 5688 5686 5684 5682 5680 5678 5676 5675 5673 5671 5669 5668 5668 5668 5669 5671 5669 5669 5670 5673 5675 5677 5678 5678 5678 5678 5678 5678 5678 5677 5676
5706 5704 5702 5700 5697 5695 5693 5689 5687 5686 5684 5682 5681 5680 5680 5678 5676 5674 5672 5670 5667 5665 5663 5661 5661 5661 5662 5660 5660 5661 5662 5665 5667 5669 5670 5671 5672 5672 5673 5672 5672 5672 5671
5699 5697 5695 5693 5690 5688 5686 5683 5681 5679 5677 5675 5674 5673 5673 5671 5670 5668 5666 5665 5662 5659 5657 5655 5654 5653 5656 5655 5654 5653 5652 5652 5655 5661 5659 5663 5664 5664 5666 5666 5666 5666 5666
5689 5688 5686 5684 5680 5678 5676 5674 5672 5670 5668 5666 5664 5662 5662 5661 5658 5657 5655 5655 5653 5652 5650 5648 5646 5647 5648 5647 5645 5643 5643 5644 5649 5653 5649 5653 5655 5656 5660 5660 5660 5660 5660
5677 5675 5673 5671 5667 5665 5665 5664 5662 5659 5656 5653 5651 5650 5647 5645 5644 5642 5642 5641 5640 5640 5638 5637 5637 5638 5639 5639 5636 5636 5636 5637 5641 5642 5641 5641 5647 5648 5652 5653 5654 5654 5654
5663 5662 5660 5657 5655 5652 5652 5651 5649 5646 5642 5639 5638 5636 5634 5631 5629 5627 5626 5626 5627 5627 5628 5627 5627 5627 5627 5626 5624 5622 5622 5622 5628 5633 5631 5631 5637 5638 5641 5644 5647 5647 5648
5651 5650 5647 5644 5643 5640 5638 5637 5636 5632 5628 5625 5623 5620 5619 5617 5615 5612 5611 5610 5611 5613 5613 5615 5614 5615 5614 5614 5613 5610 5610 5609 5614 5619 5623 5619 5624 5623 5627 5636 5638 5639 5640